Waarnemingen

Advertentie
Mijn weer
Freiburg, Duitsland (10803): temperatuur & dauwpunt: 23.03.2017 01:00:00 - 29.03.2017 01:00:00 (CEST)Freiburg, Duitsland (10803): temperatuur 5cm & temperatuur -5cm: 23.03.2017 01:00:00 - 29.03.2017 01:00:00 (CEST)Freiburg, Duitsland (10803): temperatuur -20cm & temperatuur -100cm: 23.03.2017 01:00:00 - 29.03.2017 01:00:00 (CEST)Freiburg, Duitsland (10803): windsnelheid & windstoten: 23.03.2017 01:00:00 - 29.03.2017 01:00:00 (CEST)Freiburg, Duitsland (10803): windrichting: 23.03.2017 01:00:00 - 29.03.2017 01:00:00 (CEST)Freiburg, Duitsland (10803): luchtdruk: 23.03.2017 01:00:00 - 29.03.2017 01:00:00 (CEST)Freiburg, Duitsland (10803): zicht: 23.03.2017 01:00:00 - 29.03.2017 01:00:00 (CEST)Freiburg, Duitsland (10803): Zonneschijnduur: 23.03.2017 01:00:00 - 29.03.2017 01:00:00 (CEST)Freiburg, Duitsland (10803): neerslag: 23.03.2017 01:00:00 - 29.03.2017 01:00:00 (CEST)
Datum & Tijd tt [°C] td [°C] tt 5cm [°C] tt -5cm [°C] tt -20cm [°C] tt -100cm [°C] ff [km/u] ff [kn] fx [km/u] fx [kn] dd ppp [hPa] vv [km] sd [min] rr [mm]
29.03.2017 01:00:00 10,4 6,1 6,0 11,2 12,5 9,0 3 1 5 3 NNW 1027,2 51 0 0,0
29.03.2017 00:00:00 11,6 6,1 8,0 11,7 12,8 9,0 3 1 8 4 N 1026,4 55 0 0,0
28.03.2017 23:00:00 12,6 6,5 9,0 12,1 13,0 9,0 4 2 7 4 ZZO 1025,6 58 0 0,0
28.03.2017 22:00:00 13,2 6,2 8,0 13,1 13,2 9,0 4 2 8 4 ZZW 1025,2 50 0 0,0
28.03.2017 21:00:00 15,6 6,4 11,0 14,0 13,4 9,0 4 2 7 4 ZZW 1024,2 62 0 0,0
28.03.2017 20:00:00 17,8 5,2 13,1 15,2 13,4 9,0 8 4 25 13 W 1023,1 70 0 0,0
28.03.2017 19:00:00 19,2 5,0 17,5 16,9 13,2 9,0 18 10 26 14 ZZW 1022,4 68 30 0,0
28.03.2017 18:00:00 20,4 4,4 22,0 18,6 12,8 9,0 16 9 25 14 ZW 1022,1 69 60 0,0
28.03.2017 17:00:00 20,9 5,4 23,8 19,4 12,3 9,0 16 9 32 17 ZW 1022,3 42 60 0,0
28.03.2017 16:00:00 20,1 5,0 24,0 19,4 11,6 8,9 18 10 32 17 ZW 1022,5 41 60 0,0
28.03.2017 15:00:00 19,6 5,8 24,2 18,9 11,0 8,9 18 10 30 16 WZW 1023,0 36 60 0,0
28.03.2017 14:00:00 19,1 6,4 23,9 17,9 10,3 8,9 16 9 31 17 ZW 1023,5 54 60 0,0
28.03.2017 13:00:00 17,8 4,9 21,6 15,9 9,7 8,9 21 11 31 17 ZW 1024,0 40 60 0,0
28.03.2017 12:00:00 17,4 5,3 21,0 13,9 9,2 8,9 23 12 33 18 ZZW 1024,2 42 60 0,0
28.03.2017 11:00:00 16,2 4,7 18,8 11,5 9,0 8,9 23 12 37 20 ZZW 1024,4 27 60 0,0
28.03.2017 10:00:00 14,9 4,7 18,0 9,2 8,9 8,9 4 2 9 5 Z 1024,2 32 60 0,0
28.03.2017 09:00:00 8,7 5,3 11,4 6,4 9,1 8,9 3 1 6 3 NNO 1024,4 21 57 0,0
28.03.2017 08:00:00 3,8 2,3 0,5 5,3 9,4 8,9 0 0 6 3 N 1024,7 18 0 0,0
28.03.2017 07:00:00 3,0 2,3 -0,6 5,5 9,7 8,9 3 2 8 4 WNW 1024,6 11 0 0,0
28.03.2017 06:00:00 3,9 3,1 0,1 5,9 10,0 8,9 3 2 7 4 Z 1024,3 17 0 0,0
28.03.2017 05:00:00 4,1 3,0 -0,8 6,3 10,3 8,9 1 0 4 2 O 1024,0 21 0 0,0
28.03.2017 04:00:00 3,6 2,3 0,1 6,7 10,7 8,9 3 2 4 2 ZW 1024,0 19 0 0,0
28.03.2017 03:00:00 4,2 2,5 0,5 7,3 11,0 8,9 3 2 5 3 ONO 1024,1 24 0 0,0
28.03.2017 02:00:00 5,2 3,4 0,6 7,9 11,4 8,9 3 1 4 2 ZZW 1023,6 25 0 0,0
28.03.2017 01:00:00 5,4 2,7 1,0 8,6 11,8 8,9 0 0 5 3 N 1023,4 31 0 0,0
28.03.2017 00:00:00 7,0 3,9 2,7 9,3 12,1 8,9 4 2 6 3 NO 1022,9 30 0 0,0
27.03.2017 23:00:00 9,0 4,3 3,2 10,2 12,5 8,9 2 1 7 4 ZZO 1022,5 38 0 0,0
27.03.2017 22:00:00 10,6 4,4 4,4 11,2 12,8 8,9 4 2 6 4 Z 1022,2 39 0 0,0
27.03.2017 21:00:00 10,1 3,4 4,9 12,6 13,0 8,9 3 2 7 4 ZZW 1021,7 50 0 0,0
27.03.2017 20:00:00 14,8 3,8 8,5 14,5 13,0 8,8 7 4 13 7 NW 1020,8 52 10 0,0
27.03.2017 19:00:00 17,3 3,7 18,3 16,7 12,8 8,8 10 5 16 8 NW 1020,4 61 60 0,0
27.03.2017 18:00:00 18,3 2,9 21,5 18,3 12,4 8,8 6 4 14 8 NW 1020,2 46 60 0,0
27.03.2017 17:00:00 18,1 3,4 25,5 19,1 11,8 8,8 6 3 16 8 NNW 1020,5 37 60 0,0
27.03.2017 16:00:00 17,3 3,2 26,5 19,6 11,1 8,8 9 5 19 10 NNW 1021,1 25 60 0,0
27.03.2017 15:00:00 16,4 3,5 24,8 19,1 10,4 8,8 5 3 11 6 NW 1021,6 35 60 0,0
27.03.2017 14:00:00 15,1 2,4 21,3 17,6 9,6 8,8 4 2 11 6 Z 1022,2 26 60 0,0
27.03.2017 13:00:00 12,7 1,9 21,6 15,5 9,0 8,8 5 3 17 9 WZW 1022,9 27 60 0,0
27.03.2017 12:00:00 11,5 1,4 16,9 13,1 8,6 8,8 6 4 13 7 WZW 1022,9 34 60 0,0
27.03.2017 11:00:00 10,5 0,7 15,5 11,0 8,3 8,8 7 4 16 9 ZW 1022,9 41 59 0,0
27.03.2017 10:00:00 9,0 1,1 13,4 9,8 8,2 8,8 4 2 8 4 W 1023,1 38 60 0,0
27.03.2017 09:00:00 6,7 0,9 8,4 5,6 8,4 8,8 7 4 9 5 WZW 1023,0 29 56 0,0
27.03.2017 08:00:00 2,8 -2,1 -0,8 3,2 8,7 8,8 3 2 8 4 W 1023,1 50 0 0,0
27.03.2017 07:00:00 2,9 -2,6 -1,0 3,7 9,0 8,8 5 3 14 8 NNO 1022,4 70 0 0,0
27.03.2017 06:00:00 4,8 -2,6 0,0 4,3 9,4 8,8 8 4 22 12 Z 1021,9 70 0 0,0
27.03.2017 05:00:00 9,8 -3,9 7,2 5,1 9,7 8,8 14 8 28 15 ONO 1021,0 70 0 0,0
27.03.2017 04:00:00 9,4 -2,2 5,3 5,3 10,1 8,8 8 4 16 9 OZO 1021,5 70 0 0,0
27.03.2017 03:00:00 9,8 -1,3 3,9 6,0 10,5 8,8 3 2 21 11 O 1021,7 67 0 0,0
27.03.2017 02:00:00 10,6 -0,2 6,7 6,8 10,8 8,8 6 3 21 11 ONO 1022,0 47 0 0,0
27.03.2017 01:00:00 11,6 1,0 8,9 7,5 11,2 8,8 9 5 24 13 O 1022,0 36 0 0,0
27.03.2017 00:00:00 8,5 3,5 3,8 8,1 11,6 8,7 5 3 14 8 NW 1022,4 21 0 0,0
26.03.2017 23:00:00 11,4 4,2 8,3 9,3 12,0 8,7 6 3 19 11 ZO 1022,1 28 0 0,0
26.03.2017 22:00:00 11,3 4,1 7,9 9,6 12,3 8,7 10 5 15 8 ZZO 1021,6 36 0 0,0
26.03.2017 21:00:00 11,2 2,9 5,7 11,5 12,6 8,7 3 1 8 5 WNW 1021,2 35 0 0,0
26.03.2017 20:00:00 13,7 3,0 12,3 13,4 12,8 8,7 7 4 21 12 NNW 1020,8 30 9 0,0
26.03.2017 19:00:00 14,9 3,5 15,5 15,3 12,7 8,7 13 7 20 11 NW 1020,1 33 60 0,0
26.03.2017 18:00:00 15,8 3,3 18,7 17,7 12,5 8,7 14 7 21 12 NW 1020,0 36 60 0,0
26.03.2017 17:00:00 16,0 3,7 20,9 19,1 12,1 8,7 9 5 23 12 WNW 1020,0 31 60 0,0
26.03.2017 16:00:00 14,9 3,2 20,6 19,5 11,5 8,7 16 8 26 14 NW 1020,2 23 38 0,0
26.03.2017 15:00:00 14,3 3,1 20,4 20,6 10,8 8,7 11 6 22 12 NW 1020,3 20 49 0,0
26.03.2017 14:00:00 13,3 3,0 21,9 20,6 10,0 8,7 11 6 19 11 NW 1021,3 26 60 0,0
26.03.2017 13:00:00 11,9 2,4 19,5 18,7 9,2 8,7 10 6 17 9 NW 1021,8 24 60 0,0
26.03.2017 12:00:00 10,1 1,2 16,9 16,1 8,6 8,7 6 4 14 8 N 1022,0 28 60 0,0
26.03.2017 11:00:00 8,9 1,5 16,4 12,8 8,2 8,7 4 2 14 8 NNW 1022,1 39 60 0,0
26.03.2017 10:00:00 7,5 1,5 11,4 9,2 8,1 8,7 4 2 8 4 NW 1022,4 30 60 0,0
26.03.2017 09:00:00 5,3 1,1 8,1 5,4 8,3 8,7 6 3 8 4 NNW 1022,4 30 53 0,0
26.03.2017 08:00:00 2,0 -0,3 -1,3 3,3 8,6 8,7 2 1 6 3 ONO 1022,2 19 0 0,0
26.03.2017 07:00:00 2,5 0,4 -1,2 3,6 9,0 8,7 2 1 16 9 NW 1021,5 25 0 0,0
26.03.2017 06:00:00 2,5 0,1 -1,1 4,2 9,4 8,7 4 2 8 4 WZW 1020,8 30 0 0,0
26.03.2017 05:00:00 3,7 0,7 -0,6 4,8 9,7 8,7 2 1 7 4 NW 1020,0 27 0 0,0
26.03.2017 04:00:00 5,0 0,6 0,3 5,7 10,1 8,7 4 2 21 12 NNO 1019,6 32 0 0,0
26.03.2017 03:00:00 8,1 0,9 5,6 6,4 10,4 8,6 11 6 14 8 NO 1019,4 35 0 0,0
26.03.2017 02:00:00 9,9 0,3 4,4 7,3 10,7 8,6 6 4 24 13 ZO 1019,1 45 0 0,0
26.03.2017 01:00:00 12,3 0,1 9,7 7,8 11,1 8,6 13 7 28 15 OZO 1018,6 43 0 0,0
26.03.2017 00:00:00 12,8 0,3 10,6 8,5 11,4 8,6 17 9 39 21 OZO 1018,6 41 0 0,0
25.03.2017 23:00:00 13,3 0,9 11,3 9,2 11,8 8,6 26 14 39 21 ZO 1018,2 34 0 0,0
25.03.2017 22:00:00 14,2 1,1 11,9 9,9 12,1 8,6 18 10 37 20 OZO 1017,8 34 0 0,0
25.03.2017 21:00:00 15,3 1,0 12,7 10,9 12,5 8,6 15 8 31 17 O 1017,1 35 0 0,0
25.03.2017 20:00:00 16,9 0,5 14,5 12,4 12,7 8,6 18 10 40 22 ONO 1016,4 38 8 0,0
25.03.2017 19:00:00 17,9 1,9 17,2 14,9 12,7 8,6 15 8 31 17 NNO 1016,0 38 60 0,0
25.03.2017 18:00:00 19,3 2,0 20,7 17,4 12,5 8,6 16 9 28 15 NNO 1016,0 42 60 0,0
25.03.2017 17:00:00 20,1 2,8 23,2 19,0 12,0 8,6 11 6 30 16 ONO 1016,3 36 60 0,0
25.03.2017 16:00:00 19,3 3,8 22,5 20,1 11,4 8,6 17 9 38 20 O 1016,9 25 60 0,0
25.03.2017 15:00:00 19,4 5,3 23,6 21,6 10,6 8,6 13 7 23 13 ONO 1017,4 34 60 0,0
25.03.2017 14:00:00 17,1 5,8 21,7 20,7 9,8 8,6 5 3 16 9 ZO 1018,9 23 60 0,0
25.03.2017 13:00:00 14,3 6,7 18,4 18,3 9,0 8,6 11 6 21 12 W 1020,3 13 60 0,0
25.03.2017 12:00:00 12,5 5,2 19,4 16,5 8,3 8,6 6 3 16 9 N 1021,6 14 60 0,0
25.03.2017 11:00:00 9,9 5,0 14,3 13,3 7,8 8,6 3 2 9 5 WNW 1022,7 8 60 0,0
25.03.2017 10:00:00 7,1 4,7 11,4 9,0 7,7 8,6 3 2 9 5 NNO 1023,4 6 57 0,0
25.03.2017 09:00:00 4,6 3,7 5,8 5,2 7,9 8,6 4 2 8 4 N 1024,0 3,8 8 0,0
25.03.2017 08:00:00 3,2 2,8 0,9 3,7 8,2 8,6 3 1 10 5 OZO 1024,6 3,2 0 0,0
25.03.2017 07:00:00 3,4 3,1 0,1 4,0 8,5 8,6 5 3 10 6 NNW 1024,2 3,1 0 0,0
25.03.2017 06:00:00 4,1 3,3 0,7 4,7 8,8 8,6 4 2 9 5 NNO 1024,1 3,3 0 0,0
25.03.2017 05:00:00 5,2 4,5 1,7 5,2 9,1 8,6 5 3 8 5 N 1024,5 4,2 0 0,0
25.03.2017 04:00:00 5,6 3,7 2,0 6,0 9,3 8,6 4 2 28 15 NNW 1024,8 6 0 0,0
25.03.2017 03:00:00 8,7 4,8 6,2 6,7 9,5 8,6 11 6 24 13 N 1024,8 12 0 0,0
25.03.2017 02:00:00 9,7 5,0 7,4 6,9 9,8 8,6 13 7 27 15 NNO 1024,8 13 0 0,0
25.03.2017 01:00:00 8,1 5,4 6,1 7,4 10,0 8,5 8 4 24 13 NNO 1025,5 8 0 0,0
25.03.2017 00:00:00 11,1 4,8 9,1 8,1 10,2 8,5 11 6 39 21 OZO 1025,3 15 0 0,0
24.03.2017 23:00:00 11,5 4,9 10,3 8,5 10,4 8,5 24 13 41 22 O 1024,9 13 0 0,0
24.03.2017 22:00:00 10,5 5,5 8,3 8,8 10,7 8,5 9 5 41 22 NO 1024,7 11 0 0,0
24.03.2017 21:00:00 9,6 5,8 6,9 9,2 10,9 8,5 4 2 15 8 NW 1024,4 10 0 0,0
24.03.2017 20:00:00 11,4 6,5 9,6 10,3 11,1 8,5 8 4 25 13 O 1023,6 12 0 0,0
24.03.2017 19:00:00 12,3 6,4 11,4 11,7 11,2 8,5 18 10 31 17 NNO 1022,9 14 0 0,0
24.03.2017 18:00:00 13,4 6,5 13,7 13,8 11,0 8,5 14 7 29 16 NNO 1022,5 17 25 0,0
24.03.2017 17:00:00 14,6 6,9 16,3 15,2 10,7 8,5 12 7 23 12 NNO 1022,2 23 16 0,0
24.03.2017 16:00:00 13,6 6,5 16,7 15,9 10,4 8,5 12 7 25 13 N 1022,4 20 21 0,0
24.03.2017 15:00:00 13,4 6,6 16,0 14,5 10,0 8,5 12 6 24 13 N 1022,6 20 0 0,0
24.03.2017 14:00:00 12,7 7,2 15,6 14,8 9,6 8,5 11 6 20 11 NNW 1022,6 14 0 0,0
24.03.2017 13:00:00 11,1 7,4 13,9 12,7 9,3 8,5 5 3 16 8 NNW 1023,1 11 0 0,0
24.03.2017 12:00:00 9,9 7,2 12,5 11,8 9,0 8,5 6 3 12 6 N 1022,7 10 0 0,0
24.03.2017 11:00:00 8,3 6,4 10,1 10,0 8,9 8,5 6 4 11 6 N 1022,6 8 0 0,0
24.03.2017 10:00:00 7,6 6,3 8,6 8,7 8,9 8,5 7 4 13 7 WNW 1022,5 7 0 0,0
24.03.2017 09:00:00 6,8 6,0 6,7 7,4 9,0 8,5 6 3 13 7 NW 1021,1 7 0 0,0
24.03.2017 08:00:00 6,7 6,0 6,5 7,1 9,1 8,5 6 4 10 5 NW 1021,7 7 0 0,0
24.03.2017 07:00:00 6,5 5,8 5,4 6,9 9,3 8,5 5 3 6 4 NNW 1021,0 7 0 0,0
24.03.2017 06:00:00 6,2 5,4 5,2 7,1 9,5 8,5 4 2 8 4 W 1020,7 7 0 0,0
24.03.2017 05:00:00 6,2 5,1 5,0 7,1 9,7 8,5 5 3 6 4 W 1020,6 7 0 0,0
24.03.2017 04:00:00 7,4 6,0 5,5 7,2 10,0 8,5 6 4 9 5 WZW 1020,5 9 0 0,0
24.03.2017 03:00:00 8,0 6,2 5,0 7,5 10,2 8,5 4 2 14 7 WNW 1019,8 11 0 0,0
24.03.2017 02:00:00 7,4 5,9 4,0 7,6 10,5 8,5 7 4 13 7 W 1018,7 11 0 0,0
24.03.2017 01:00:00 9,8 6,8 6,7 8,6 10,8 8,5 5 3 16 8 WZW 1016,1 15 0 0,0
24.03.2017 00:00:00 12,9 7,2 9,8 9,5 11,0 8,5 8 5 25 13 NNO 1014,6 19 0 0,0
23.03.2017 23:00:00 14,4 7,7 12,3 9,9 11,3 8,5 18 10 35 19 ONO 1013,4 18 0 0,0
23.03.2017 22:00:00 13,4 7,5 9,4 10,1 11,6 8,5 6 3 18 10 ONO 1012,9 31 0 0,0
23.03.2017 21:00:00 14,0 7,6 10,2 11,0 11,9 8,5 11 6 16 9 N 1012,0 36 0 0,0
23.03.2017 20:00:00 15,9 7,4 12,6 12,3 12,0 8,5 11 6 26 14 NNO 1011,3 39 0 0,0
23.03.2017 19:00:00 17,3 6,9 15,4 13,9 12,1 8,5 15 8 32 18 NNO 1010,4 66 33 0,0
23.03.2017 18:00:00 18,4 6,6 18,4 16,2 11,9 8,5 16 8 32 17 NO 1009,7 70 60 0,0
23.03.2017 17:00:00 18,2 8,5 21,1 17,7 11,5 8,5 19 10 30 16 NW 1009,7 37 60 0,0
23.03.2017 16:00:00 16,8 8,4 20,2 18,5 11,0 8,5 19 10 29 16 NW 1010,7 23 60 0,0
23.03.2017 15:00:00 15,7 8,0 20,8 19,6 10,3 8,4 19 11 27 15 NNW 1011,4 29 60 0,0
23.03.2017 14:00:00 14,7 7,5 20,8 19,5 9,6 8,4 11 6 23 12 NNW 1012,1 57 60 0,0
23.03.2017 13:00:00 12,6 5,9 18,2 18,0 8,8 8,4 11 6 19 11 NW 1013,2 33 60 0,0
23.03.2017 12:00:00 12,4 5,9 18,2 15,7 8,2 8,4 7 4 23 13 NNW 1013,4 42 55 0,0
23.03.2017 11:00:00 10,6 5,8 16,1 13,2 7,7 8,4 8 4 15 8 NNW 1013,6 22 60 0,0
23.03.2017 10:00:00 8,1 4,7 12,9 9,4 7,6 8,4 5 3 8 4 NNO 1013,9 15 54 0,0
23.03.2017 09:00:00 6,5 4,9 8,7 6,2 7,7 8,4 3 2 5 3 NNW 1013,8 11 48 0,0
23.03.2017 08:00:00 3,5 3,1 1,1 4,7 7,9 8,4 2 1 7 4 ZZW 1014,0 7 0 0,0
23.03.2017 07:00:00 5,0 4,6 2,0 5,2 8,1 8,4 4 2 6 3 ONO 1013,6 7 0 0,0
23.03.2017 06:00:00 5,3 4,7 3,6 5,7 8,3 8,4 0 0 9 5 N 1013,3 6 0 0,0
23.03.2017 05:00:00 5,2 4,5 3,0 5,9 8,4 8,4 2 1 9 5 NNW 1013,1 9 0 0,0
23.03.2017 04:00:00 5,9 4,5 4,5 6,6 8,6 8,4 6 3 14 8 ZZW 1013,7 13 0 0,0
23.03.2017 03:00:00 7,2 4,7 6,4 6,8 8,7 8,4 13 7 16 9 ZZO 1014,2 14 0 0,0
23.03.2017 02:00:00 5,9 4,7 5,1 7,1 8,8 8,4 3 2 6 3 Z 1014,5 15 0 0,0
23.03.2017 01:00:00 - - - - - - - - - - - - - - -

tt = temperatuur
td = dauwpunt
tt 5cm = temperatuur 5cm
tt -5cm = temperatuur -5cm
tt -20cm = temperatuur -20cm
tt -100cm = temperatuur -100cm
ff = windsnelheid
fx = windstoten
dd = windrichting
ppp = luchtdruk
vv = zicht
sd = Zonneschijnduur
rr = neerslag

Weerstations in de omgeving